Overview Statistics Trail Chart Weather Telemetry Raw packets
 

This is the latest recevied weather packets stored in our database for station/object KO6HRZ. If no packets are shown the sender has not sent any weather packets the latest 10 day(s).

<< 26 27 28 29 30 31 32 >>
Time Temp. Humidity Pressure Rain* Wind** Luminosity Snow
1788280572 20.56° C 67% 1014.2 hPa 0 mm - 257 W/m² -
1788279972 20° C 68% 1014.3 hPa 0 mm - 334 W/m² -
1788279370 20° C 68% 1014.1 hPa 0 mm - 295 W/m² -
1788278767 18.89° C 71% 1014.2 hPa 0 mm - 250 W/m² -
1788278166 18.89° C 71% 1014.2 hPa 0 mm - 236 W/m² -
1788277561 17.78° C 75% 1013.9 hPa 0 mm - 191 W/m² -
1788276957 16.67° C 78% 1013.9 hPa 0 mm - 155 W/m² -
1788276352 15.56° C 81% 1013.6 hPa 0 mm - 55 W/m² -
1788275747 15° C 81% 1013.7 hPa 0 mm - 58 W/m² -
1788275144 15° C 82% 1013.5 hPa 0 mm - 63 W/m² -
1788274542 15° C 82% 1013.4 hPa 0 mm - 61 W/m² -
1788273938 14.44° C 83% 1013.4 hPa 0 mm - 45 W/m² -
1788273334 13.89° C 85% 1013 hPa 0 mm - 42 W/m² -
1788272731 13.33° C 86% 1013.2 hPa 0 mm - 33 W/m² -
1788272132 13.33° C 87% 1013 hPa 0 mm - 27 W/m² -
1788271531 12.78° C 88% 1012.7 hPa 0 mm - 21 W/m² -
1788270931 12.78° C 88% 1012.4 hPa 0 mm - 14 W/m² -
1788270329 12.78° C 88% 1012.4 hPa 0 mm - 8 W/m² -
1788269727 12.78° C 88% 1012.3 hPa 0 mm - 3 W/m² -
1788269127 12.78° C 89% 1012.3 hPa 0 mm - 1 W/m² -
1788268526 12.78° C 88% 1012.1 hPa 0 mm - 0 W/m² -
1788267922 12.78° C 88% 1012 hPa 0 mm - 0 W/m² -
1788267319 13.33° C 88% 1012 hPa 0 mm - 0 W/m² -
1788266715 13.33° C 88% 1011.9 hPa 0 mm - 0 W/m² -
1788266116 13.33° C 88% 1011.7 hPa 0 mm - 0 W/m² -

* Rain latest hour (hover to see other rain measurements)
** Current wind speed in m/s (hover to see current wind gust speed)